Location: Ca�n Batista
(41.4099°N, 1.7752°E)
Time: 14:07:47
(UTC+00:00)

Cosmos 1844 - Pass Details

Date: 03 March 2021
Orbit: 822 x 868 km, 70.9° (Epoch: 21 April)

Event Time Altitude Azimuth Distance (km) Brightness Sun altitude
Rises 18:34:16 0° 343° (NNW) 3,456 7.1 -9.8°
Reaches altitude 10° 18:37:01 10° 353° (N) 2,511 6.3 -10.4°
Maximum altitude 18:42:11 33° 56° (ENE) 1,415 4.5 -11.3°
Enters shadow 18:46:32 13° 116° (ESE) 2,240 5.3 -12.1°
